CW8164 Weather Reports


Display with metric or nautical units.
time (UTC)temp
F
wind
direction
speed
MPH
gust
MPH
rain 1hr
in
rain 24hr
in
rain mn
in
humidity
%
barometer
mb
20260901164903 58 99 0.0 3.0 0.00 0.00 0.00 88 1012.0
20260901164404 59 97 2.0 3.0 0.00 0.00 0.00 88 1012.0
20260901163903 59 190 0.0 3.0 0.00 0.00 0.00 88 1012.0
20260901163404 59 146 1.0 3.0 0.00 0.00 0.00 87 1012.0
20260901162903 59 276 1.0 3.0 0.00 0.00 0.00 87 1012.0
20260901162403 59 126 0.0 0.0 0.00 0.00 0.00 86 1012.0
20260901161903 59 90 0.0 0.0 0.00 0.00 0.00 86 1011.9
20260901161404 59 122 0.0 0.0 0.00 0.00 0.00 85 1011.9
20260901160903 60 144 0.0 1.0 0.00 0.00 0.00 84 1011.9
20260901160403 60 86 0.0 1.0 0.00 0.00 0.00 84 1011.9
20260901155903 60 146 0.0 0.0 0.00 0.00 0.00 83 1011.9
20260901155404 60 118 0.0 2.0 0.00 0.00 0.00 82 1012.0
20260901154904 60 94 0.0 3.0 0.00 0.00 0.00 82 1012.0
20260901154403 60 152 0.0 5.0 0.00 0.00 0.00 82 1011.9
20260901153903 60 140 2.0 5.0 0.00 0.00 0.00 81 1011.9
20260901153404 60 156 0.0 2.0 0.00 0.00 0.00 81 1011.9
20260901152904 60 122 0.0 2.0 0.00 0.00 0.00 81 1011.9
20260901152403 60 114 0.0 3.0 0.00 0.00 0.00 81 1011.9
20260901151903 60 137 0.0 3.0 0.00 0.00 0.00 81 1011.7
20260901151403 60 146 1.0 2.0 0.00 0.00 0.00 81 1011.7
20260901150903 60 123 0.0 2.0 0.00 0.00 0.00 81 1011.7
20260901150403 60 78 0.0 2.0 0.00 0.00 0.00 81 1011.7
20260901145404 59 71 1.0 2.0 0.00 0.00 0.00 81 1011.6
20260901144903 59 130 0.0 3.0 0.00 0.00 0.00 81 1011.6
20260901144403 59 128 0.0 3.0 0.00 0.00 0.00 81 1011.6
20260901143904 59 80 1.0 3.0 0.00 0.00 0.00 81 1011.6
20260901143403 59 120 0.0 2.0 0.00 0.00 0.00 82 1011.7
20260901142404 59 102 0.0 2.0 0.00 0.00 0.00 82 1011.6
20260901141903 59 88 0.0 2.0 0.00 0.00 0.00 82 1011.6
20260901141403 59 88 1.0 2.0 0.00 0.00 0.00 82 1011.6
20260901135903 59 97 0.0 2.0 0.00 0.00 0.00 82 1011.6
20260901135403 59 128 0.0 2.0 0.00 0.00 0.00 82 1011.5
20260901134904 59 150 0.0 2.0 0.00 0.00 0.00 82 1011.5
20260901134403 59 129 0.0 2.0 0.00 0.00 0.00 82 1011.5
20260901133903 59 112 0.0 2.0 0.00 0.00 0.00 82 1011.5
20260901133404 59 67 0.0 0.0 0.00 0.00 0.00 83 1011.5
20260901132404 59 78 0.0 2.0 0.00 0.00 0.00 82 1011.5
20260901131904 59 123 0.0 2.0 0.00 0.00 0.00 82 1011.5
20260901130404 59 77 0.0 0.0 0.00 0.00 0.00 82 1011.4
20260901125903 59 77 0.0 3.0 0.00 0.00 0.00 82 1011.4
20260901125403 59 77 0.0 3.0 0.00 0.00 0.00 82 1011.4
20260901124903 59 4 0.0 1.0 0.00 0.00 0.00 82 1011.4
20260901123904 59 205 1.0 7.0 0.00 0.00 0.00 82 1011.4
20260901123403 59 102 1.0 7.0 0.00 0.00 0.00 82 1011.4
20260901122903 59 153 0.0 5.0 0.00 0.00 0.00 82 1011.3
20260901121903 59 111 0.0 3.0 0.00 0.00 0.00 82 1011.4
20260901121403 59 90 0.0 3.0 0.00 0.00 0.00 82 1011.5
20260901120903 59 97 1.0 3.0 0.00 0.00 0.00 83 1011.4
20260901120403 59 142 0.0 2.0 0.00 0.00 0.00 83 1011.4
20260901115403 58 114 0.0 3.0 0.00 0.00 0.00 83 1011.3
20260901114904 58 41 0.0 1.0 0.00 0.00 0.00 84 1011.3
20260901113903 58 143 0.0 2.0 0.00 0.00 0.00 83 1011.2
20260901112903 58 253 0.0 5.0 0.00 0.00 0.00 82 1011.1
20260901112404 59 28 1.0 8.0 0.00 0.00 0.00 82 1011.1
20260901111903 59 123 1.0 8.0 0.00 0.00 0.00 82 1011.1
20260901111403 59 89 1.0 6.0 0.00 0.00 0.00 82 1011.0
20260901110904 59 123 2.0 6.0 0.00 0.00 0.00 82 1011.0
20260901105403 59 68 2.0 5.0 0.00 0.00 0.00 82 1011.0
20260901104903 59 89 0.0 5.0 0.00 0.00 0.00 83 1011.1
20260901104404 59 64 1.0 5.0 0.00 0.00 0.00 83 1011.1
20260901103903 59 86 1.0 5.0 0.00 0.00 0.00 83 1011.0
20260901103403 58 105 0.0 5.0 0.00 0.00 0.00 83 1011.0
20260901102904 58 69 0.0 3.0 0.00 0.00 0.00 83 1011.0
20260901102404 58 64 1.0 3.0 0.00 0.00 0.00 82 1011.0
20260901101903 59 107 1.0 3.0 0.00 0.00 0.00 82 1011.0
20260901100903 58 77 1.0 3.0 0.00 0.00 0.00 83 1010.9
20260901100403 58 109 0.0 3.0 0.00 0.00 0.00 83 1010.8
20260901095904 58 70 0.0 2.0 0.00 0.00 0.00 83 1010.7
20260901095403 58 88 0.0 2.0 0.00 0.00 0.00 83 1010.7
20260901094903 58 73 0.0 2.0 0.00 0.00 0.00 83 1010.7
20260901094404 58 93 1.0 2.0 0.00 0.00 0.00 84 1010.6
20260901093903 58 82 0.0 2.0 0.00 0.00 0.00 85 1010.7
20260901092903 57 71 0.0 2.0 0.00 0.00 0.00 86 1010.5
20260901092403 57 77 0.0 2.0 0.00 0.00 0.00 87 1010.5
20260901091904 56 102 0.0 2.0 0.00 0.00 0.00 87 1010.3
20260901091403 56 67 0.0 0.0 0.00 0.00 0.00 87 1010.3
20260901090903 56 67 0.0 0.0 0.00 0.00 0.00 87 1010.3
20260901090404 56 67 0.0 0.0 0.00 0.00 0.00 87 1010.2
20260901085403 56 55 0.0 0.0 0.00 0.00 0.00 88 1010.1
20260901084903 56 55 0.0 0.0 0.00 0.00 0.00 87 1010.1
20260901084403 55 55 0.0 0.0 0.00 0.00 0.00 88 1010.2
20260901083903 55 69 0.0 0.0 0.00 0.00 0.00 88 1010.2
20260901083403 55 86 0.0 0.0 0.00 0.00 0.00 88 1010.1
20260901082903 55 86 0.0 0.0 0.00 0.00 0.00 88 1010.2
20260901082403 55 86 0.0 0.0 0.00 0.00 0.00 87 1010.1
20260901081904 56 86 0.0 0.0 0.00 0.00 0.00 86 1010.1
20260901080903 56 86 0.0 0.0 0.00 0.00 0.00 86 1010.0
20260901080403 56 86 0.0 0.0 0.00 0.00 0.00 86 1010.0
20260901075903 56 86 0.0 0.0 0.00 0.00 0.00 86 1010.0
20260901075403 57 86 0.0 0.0 0.00 0.00 0.00 85 1009.9
20260901074903 57 86 0.0 0.0 0.00 0.00 0.00 85 1010.0
20260901074403 57 86 0.0 0.0 0.00 0.00 0.00 86 1009.9
20260901073903 57 86 0.0 1.0 0.00 0.00 0.00 85 1009.8
20260901073403 57 86 0.0 1.0 0.00 0.00 0.00 84 1009.7
20260901072904 57 109 0.0 0.0 0.00 0.00 0.00 85 1009.7
20260901072403 57 117 0.0 1.0 0.00 0.00 0.00 86 1009.6
20260901071904 57 55 0.0 1.0 0.00 0.00 0.00 84 1009.5
20260901071403 58 55 0.0 0.0 0.00 0.00 0.00 85 1009.4
20260901070903 58 55 0.0 0.0 0.00 0.00 0.00 85 1009.4
20260901070403 58 55 0.0 0.0 0.00 0.00 0.00 84 1009.3
20260901065903 58 55 0.0 0.0 0.00 0.00 0.00 83 1009.2
20260901065403 58 55 0.0 0.0 0.00 0.00 0.00 83 1009.1
20260901064903 58 50 0.0 0.0 0.00 0.00 0.00 83 1009.0
20260901064403 58 36 0.0 0.0 0.00 0.00 0.00 83 1008.8
20260901063903 59 36 0.0 1.0 0.00 0.00 0.00 82 1008.8
20260901063403 59 37 0.0 1.0 0.00 0.00 0.00 82 1008.8
20260901062903 59 64 0.0 0.0 0.00 0.00 0.00 81 1008.7
20260901062403 60 65 0.0 0.0 0.00 0.00 0.00 81 1008.6
20260901061904 60 65 0.0 0.0 0.00 0.00 0.00 81 1008.6
20260901061403 60 65 0.0 0.0 0.00 0.00 0.00 80 1008.6
20260901060904 60 80 0.0 0.0 0.00 0.00 0.00 79 1008.5
20260901060404 61 86 0.0 0.0 0.00 0.00 0.00 79 1008.4
20260901055404 61 87 0.0 0.0 0.00 0.00 0.00 79 1008.2
20260901054904 61 88 0.0 0.0 0.00 0.00 0.00 78 1008.3
20260901054403 61 87 0.0 0.0 0.00 0.00 0.00 78 1008.3
20260901053403 62 86 0.0 0.0 0.00 0.00 0.00 77 1008.3
20260901052903 62 88 0.0 0.0 0.00 0.00 0.00 77 1008.2
20260901052403 62 88 0.0 0.0 0.00 0.00 0.00 76 1008.2
20260901051903 63 88 0.0 0.0 0.00 0.00 0.00 76 1008.1
20260901051403 63 88 0.0 0.0 0.00 0.00 0.00 76 1008.0
20260901050903 63 88 0.0 0.0 0.00 0.00 0.00 76 1007.8
20260901050403 63 89 0.0 0.0 0.00 0.00 0.00 75 1007.8
20260901045903 63 94 0.0 0.0 0.00 0.00 0.00 75 1007.8
20260901044903 64 89 0.0 0.0 0.00 0.00 0.00 74 1007.9
20260901044404 64 89 0.0 0.0 0.00 0.00 0.00 73 1007.9
20260901043904 64 88 0.0 0.0 0.00 0.00 0.00 72 1007.9
20260901043404 65 88 0.0 0.0 0.00 0.00 0.00 72 1007.9
20260901042903 65 88 0.0 0.0 0.00 0.00 0.00 71 1007.9
20260901042403 65 88 0.0 0.0 0.00 0.00 0.00 71 1007.8
20260901041903 66 89 0.0 0.0 0.00 0.00 0.00 70 1007.8
20260901041403 66 82 0.0 0.0 0.00 0.00 0.00 69 1007.6
20260901040903 66 112 0.0 0.0 0.00 0.00 0.00 69 1007.7
20260901040404 67 124 0.0 0.0 0.00 0.00 0.00 68 1007.5
20260901035904 67 32 0.0 0.0 0.00 0.00 0.00 68 1007.4
20260901035404 67 32 0.0 0.0 0.00 0.00 0.00 68 1007.3
20260901034903 68 69 0.0 0.0 0.00 0.00 0.00 67 1007.3
20260901034404 68 60 0.0 0.0 0.00 0.00 0.00 67 1007.2
20260901033403 69 92 0.0 0.0 0.00 0.00 0.00 63 1007.0
20260901032904 70 91 0.0 0.0 0.00 0.00 0.00 63 1007.0
20260901031904 71 120 0.0 0.0 0.00 0.00 0.00 62 1006.9
20260901031403 72 119 0.0 0.0 0.00 0.00 0.00 62 1006.8
20260901030903 73 119 0.0 0.0 0.00 0.00 0.00 61 1006.8
20260901030403 74 119 0.0 0.0 0.00 0.00 0.00 59 1006.7
20260901025903 74 119 0.0 0.0 0.00 0.00 0.00 56 1006.7
20260901025403 75 119 0.0 0.0 0.00 0.00 0.00 56 1006.7
20260901024403 76 119 0.0 0.0 0.00 0.00 0.00 55 1006.6
20260901023903 77 119 0.0 0.0 0.00 0.00 0.00 55 1006.6
20260901023403 78 119 0.0 0.0 0.00 0.00 0.00 55 1006.5
20260901022404 79 120 0.0 0.0 0.00 0.00 0.00 52 1006.5
20260901021404 80 120 0.0 0.0 0.00 0.00 0.00 51 1006.5
20260901020904 81 119 0.0 0.0 0.00 0.00 0.00 49 1006.4
20260901020403 81 118 0.0 0.0 0.00 0.00 0.00 45 1006.5
20260901015903 82 109 0.0 0.0 0.00 0.00 0.00 45 1006.5
20260901015404 83 39 0.0 0.0 0.00 0.00 0.00 45 1006.4
20260901014904 83 112 0.0 0.0 0.00 0.00 0.00 46 1006.4
20260901014404 83 110 0.0 0.0 0.00 0.00 0.00 45 1006.4
20260901013903 84 98 0.0 0.0 0.00 0.00 0.00 40 1006.4
20260901013403 84 98 0.0 2.0 0.00 0.00 0.00 40 1006.4
20260901012904 84 96 0.0 2.0 0.00 0.00 0.00 37 1006.4
20260901012403 85 96 0.0 0.0 0.00 0.00 0.00 37 1006.4
20260901011903 85 117 0.0 0.0 0.00 0.00 0.00 38 1006.4
20260901011403 85 74 0.0 1.0 0.00 0.00 0.00 36 1006.5
20260901010903 85 173 0.0 2.0 0.00 0.00 0.00 36 1006.5
20260901010403 85 351 0.0 2.0 0.00 0.00 0.00 39 1006.5
20260901005904 85 240 0.0 3.0 0.00 0.00 0.00 35 1006.4
20260901005403 85 318 0.0 6.0 0.00 0.00 0.00 36 1006.5
20260901004904 85 289 1.0 6.0 0.00 0.00 0.00 36 1006.6
20260901004403 85 206 0.0 2.0 0.00 0.00 0.00 36 1006.5
20260901003903 85 212 0.0 2.0 0.00 0.00 0.00 36 1006.5
20260901003404 85 271 0.0 5.0 0.00 0.00 0.00 37 1006.6
20260901002904 86 191 1.0 5.0 0.00 0.00 0.00 36 1006.6
20260901002403 86 239 1.0 3.0 0.00 0.00 0.00 35 1006.6
20260901001903 85 262 1.0 5.0 0.00 0.00 0.00 37 1006.6
20260901001404 85 253 1.0 5.0 0.00 0.00 0.00 37 1006.6
20260901000903 85 186 0.0 5.0 0.00 0.00 0.00 37 1006.6
20260901000405 86 232 0.0 5.0 0.00 0.00 0.00 36 1006.6
20260831235904 87 194 2.0 6.0 0.00 0.00 0.00 35 1006.6
20260831234903 87 259 2.0 5.0 0.00 0.00 0.00 36 1006.6
20260831234403 87 262 1.0 6.0 0.00 0.00 0.00 35 1006.7
20260831233903 88 208 2.0 6.0 0.00 0.00 0.00 35 1006.6
20260831233404 88 240 1.0 5.0 0.00 0.00 0.00 35 1006.8
20260831232404 88 264 1.0 6.0 0.00 0.00 0.00 35 1006.8
20260831231904 88 231 1.0 5.0 0.00 0.00 0.00 35 1006.8
20260831231404 87 218 2.0 5.0 0.00 0.00 0.00 36 1006.8
20260831230904 87 242 2.0 5.0 0.00 0.00 0.00 36 1006.8
20260831230404 87 187 1.0 6.0 0.00 0.00 0.00 37 1006.8
20260831225903 87 237 3.0 6.0 0.00 0.00 0.00 35 1006.7
20260831225403 88 260 2.0 6.0 0.00 0.00 0.00 36 1006.8
20260831224904 87 338 1.0 3.0 0.00 0.00 0.00 37 1006.8
20260831224403 87 236 1.0 3.0 0.00 0.00 0.00 38 1006.9
20260831222904 87 250 2.0 7.0 0.00 0.00 0.00 38 1007.0
20260831222404 86 263 1.0 7.0 0.00 0.00 0.00 37 1007.1
20260831221903 87 173 2.0 7.0 0.00 0.00 0.00 37 1007.1
20260831220903 86 223 1.0 5.0 0.00 0.00 0.00 37 1007.3
20260831220403 86 257 1.0 3.0 0.00 0.00 0.00 38 1007.3
20260831215903 86 221 1.0 5.0 0.00 0.00 0.00 37 1007.5
20260831215404 86 199 1.0 5.0 0.00 0.00 0.00 38 1007.5
20260831214404 85 263 1.0 5.0 0.00 0.00 0.00 39 1007.6
20260831213904 85 312 2.0 5.0 0.00 0.00 0.00 38 1007.6
20260831212904 85 208 1.0 6.0 0.00 0.00 0.00 39 1007.7
20260831212404 85 202 2.0 6.0 0.00 0.00 0.00 40 1007.7
20260831211904 84 273 2.0 5.0 0.00 0.00 0.00 40 1007.7
20260831210903 83 227 1.0 7.0 0.00 0.00 0.00 40 1007.8
20260831210403 83 50 1.0 6.0 0.00 0.00 0.00 42 1007.9
20260831205904 82 270 2.0 6.0 0.00 0.00 0.00 41 1007.9
20260831205403 82 123 1.0 6.0 0.00 0.00 0.00 41 1008.0
20260831204904 82 240 2.0 6.0 0.00 0.00 0.00 43 1008.0
20260831204403 82 224 2.0 6.0 0.00 0.00 0.00 42 1008.1
20260831203904 81 285 1.0 6.0 0.00 0.00 0.00 43 1008.2
20260831203404 81 220 1.0 6.0 0.00 0.00 0.00 42 1008.2
20260831202404 81 124 1.0 7.0 0.00 0.00 0.00 44 1008.4
20260831201903 81 3 1.0 7.0 0.00 0.00 0.00 45 1008.5
20260831201404 80 236 1.0 7.0 0.00 0.00 0.00 45 1008.5
20260831200903 80 236 2.0 7.0 0.00 0.00 0.00 46 1008.6
20260831200403 79 264 2.0 7.0 0.00 0.00 0.00 47 1008.7
20260831195904 79 198 1.0 7.0 0.00 0.00 0.00 47 1008.8
20260831195404 78 321 0.0 6.0 0.00 0.00 0.00 48 1008.9
20260831194904 78 165 2.0 5.0 0.00 0.00 0.00 48 1009.0
20260831194404 78 85 1.0 5.0 0.00 0.00 0.00 50 1009.0
20260831193903 77 300 1.0 5.0 0.00 0.00 0.00 48 1009.1
20260831193403 77 85 0.0 5.0 0.00 0.00 0.00 49 1009.1
20260831192903 76 346 1.0 5.0 0.00 0.00 0.00 50 1009.2
20260831192403 76 317 2.0 6.0 0.00 0.00 0.00 51 1009.2
20260831191904 76 6 1.0 7.0 0.00 0.00 0.00 51 1009.3
20260831191403 76 52 3.0 7.0 0.00 0.00 0.00 52 1009.4
20260831190903 75 58 1.0 7.0 0.00 0.00 0.00 52 1009.6
20260831190403 75 185 2.0 3.0 0.00 0.00 0.00 51 1009.7
20260831185903 75 155 0.0 6.0 0.00 0.00 0.00 52 1009.7
20260831185404 74 237 1.0 6.0 0.00 0.00 0.00 54 1009.8
20260831184903 74 268 2.0 3.0 0.00 0.00 0.00 54 1009.9
20260831184404 74 197 1.0 3.0 0.00 0.00 0.00 54 1009.8
20260831183903 73 236 1.0 3.0 0.00 0.00 0.00 55 1010.0
20260831183404 73 219 1.0 3.0 0.00 0.00 0.00 55 1010.2
20260831182904 72 72 0.0 3.0 0.00 0.00 0.00 57 1010.2
20260831182403 72 285 2.0 5.0 0.00 0.00 0.00 56 1010.2
20260831181904 71 283 1.0 5.0 0.00 0.00 0.00 59 1010.4
20260831181403 71 145 1.0 5.0 0.00 0.00 0.00 59 1010.3
20260831180904 70 162 0.0 3.0 0.00 0.00 0.00 59 1010.4
20260831180403 70 3 1.0 5.0 0.00 0.00 0.00 59 1010.5
20260831175903 70 127 0.0 5.0 0.00 0.00 0.00 60 1010.5
20260831175404 70 233 1.0 5.0 0.00 0.00 0.00 59 1010.5
20260831174904 70 348 1.0 2.0 0.00 0.00 0.00 62 1010.6
20260831174404 69 348 1.0 3.0 0.00 0.00 0.00 63 1010.6
20260831173903 68 235 1.0 3.0 0.00 0.00 0.00 63 1010.6
20260831173403 68 215 1.0 5.0 0.00 0.00 0.00 65 1010.7
20260831172904 67 189 2.0 5.0 0.00 0.00 0.00 64 1010.8
20260831172403 67 240 0.0 5.0 0.00 0.00 0.00 67 1010.8
20260831171903 67 295 1.0 5.0 0.00 0.00 0.00 67 1010.9
20260831170903 66 254 1.0 5.0 0.00 0.00 0.00 68 1010.9
20260831165903 65 232 0.0 2.0 0.00 0.00 0.00 70 1010.9
20260831165404 65 321 0.0 3.0 0.00 0.00 0.00 70 1010.8